Tracking 18840 objects as of 19-November-2017
HD Live streaming from Space Station
objects crossing your sky now

FENGYUN 1C DEB

Track FENGYUN 1C DEB now!
10-day predictions


NORAD ID: 32363
Int'l Code: 1999-025CZG
Perigee: 498.4 km
Apogee: 818.2 km
Inclination: 98.3 °
Period: 97.8 minutes
Semi major axis: 7029 km
RCS: 0.013 m2 (small)
Launch date: May 10, 1999
Source: People's Republic of China (PRC)
Launch site: Taiyaun Space Center, China (TSC)

Note: This is SATELLITE DEBRIS
aabbcc
Your satellite tracking list
Your tracking list is empty




NASA's NSSDC Master Catalog

Two Line Element Set (TLE):
1 32363U 99025CZG 17323.10716965  .00001041  00000-0  11483-3 0  9999
2 32363  98.3322  80.5961 0227460 299.8943  57.9840 14.73102066540260
Source of the keplerian elements: AFSPC